Change the Weather History Date:

Sunday, November 4, 2012

  Actual Average Record
Temperature  
Mean Temperature 70 °F -  
Max Temperature 77 °F 64 °F 77 °F (1998)
Min Temperature 62 °F 48 °F 46 °F (2007)
Cooling Degree Days 4    
Growing Degree Days 20 (Base 50)    
Moisture  
Dew Point 64 °F    
Average Humidity 86    
Maximum Humidity 100    
Minimum Humidity 61    
Precipitation  
Precipitation 0.04 in - - ()
Sea Level Pressure  
Sea Level Pressure 29.75 in    
Wind  
Wind Speed 5 mph ()    
Max Wind Speed 18 mph    
Max Gust Speed -    
Visibility 6.7 miles    
Events Rain    
Averages and records for this station are not official NWS values.
T = Trace of Precipitation, MM = Missing Value Source: Averaged Metar Reports

Daily Weather History Graph

Daily Weather History Graph

Search for Another Location

Airport or City:

Trip Planner

Search our weather history database for the weather conditions in past years. The results will help you decide how hot, cold, wet, or windy it might be!

Date:

Astronomy

Nov. 04, 2012 Rise Set
Actual Time 7:31 AM CET 5:59 PM CET
Civil Twilight 7:04 AM CET 6:26 PM CET
Nautical Twilight 6:32 AM CET 6:58 PM CET
Astronomical Twilight 6:02 AM CET 7:29 PM CET
Moon 10:23 PM CET (11/4) 12:05 PM CET (11/4)
Length of Visible Light 11h 22m
Length of Day
10h 27m
Waning Gibbous, 74% of the Moon is Illuminated
Nov 4
Waning Gibbous
Nov 7
Last Quarter
Nov 13
New
Nov 20
First Quarter
Nov 28
Full

Hourly Weather History & Observations

Time (CET) Temp. Dew Point Humidity Pressure Visibility Wind Dir Wind Speed Gust Speed Precip Events Conditions
12:00 AM 66.2 °F 62.6 °F 88% 29.83 in 6.2 mi West 6.9 mph - N/A   Partly Cloudy
12:30 AM 66.2 °F 62.6 °F 88% 29.83 in 6.2 mi WSW 3.5 mph - N/A   Partly Cloudy
1:00 AM 65 °F 59 °F 76% 29.83 in 12 mi SW 3.5 mph - -   Mostly Cloudy
1:00 AM 64.4 °F 62.6 °F 94% 29.83 in 6.2 mi Variable 2.3 mph - N/A   Partly Cloudy
1:30 AM 64.4 °F 62.6 °F 94% 29.83 in 6.2 mi West 6.9 mph - N/A   Partly Cloudy
2:00 AM 64.4 °F 62.6 °F 94% 29.83 in 6.2 mi WSW 5.8 mph - N/A   Partly Cloudy
2:30 AM 64.4 °F 62.6 °F 94% 29.80 in 6.2 mi SW 5.8 mph - N/A   Partly Cloudy
3:00 AM 64.4 °F 62.6 °F 94% 29.80 in 6.2 mi WSW 3.5 mph - N/A   Partly Cloudy
3:30 AM 64.4 °F 62.6 °F 94% 29.80 in 6.2 mi SW 3.5 mph - N/A   Partly Cloudy
4:00 AM 64.4 °F 62.6 °F 94% 29.80 in 6.2 mi Variable 1.2 mph - N/A   Partly Cloudy
4:30 AM 64.4 °F 62.6 °F 94% 29.80 in 6.2 mi Variable 1.2 mph - N/A   Partly Cloudy
5:00 AM 64.4 °F 62.6 °F 94% 29.77 in 6.2 mi Calm Calm - N/A   Partly Cloudy
5:30 AM 62.6 °F 62.6 °F 100% 29.77 in 6.2 mi Variable 2.3 mph - N/A   Partly Cloudy
6:00 AM 62.6 °F 62.6 °F 100% 29.77 in 6.2 mi SW 4.6 mph - N/A   Partly Cloudy
6:30 AM 62.6 °F 62.6 °F 100% 29.77 in 6.2 mi West 4.6 mph - N/A   Partly Cloudy
7:00 AM 62 °F 60 °F 89% 29.76 in 12 mi West 4.6 mph - -   Scattered Clouds
7:00 AM 62.6 °F 62.6 °F 100% 29.74 in 6.2 mi West 3.5 mph - N/A   Scattered Clouds
7:30 AM 62.6 °F 62.6 °F 100% 29.77 in 6.2 mi WSW 4.6 mph - N/A   Scattered Clouds
8:00 AM 62.6 °F 62.6 °F 100% 29.77 in 6.2 mi SSW 4.6 mph - N/A   Scattered Clouds
8:30 AM 62.6 °F 62.6 °F 100% 29.77 in - WSW 4.6 mph - N/A   Clear
9:00 AM 64.4 °F 64.4 °F 100% 29.77 in - Variable 2.3 mph - N/A   Clear
9:30 AM 66.2 °F 64.4 °F 94% 29.77 in - West 3.5 mph - N/A   Clear
10:00 AM 66.2 °F 64.4 °F 94% 29.77 in - Variable 2.3 mph - N/A   Clear
10:30 AM 66.2 °F 64.4 °F 94% 29.77 in - Variable 2.3 mph - N/A   Clear
11:00 AM 68.0 °F 66.2 °F 94% 29.77 in - Variable 2.3 mph - N/A   Clear
11:30 AM 71.6 °F 66.2 °F 83% 29.77 in 6.2 mi SSW 3.5 mph - N/A   Partly Cloudy
12:00 PM 73.4 °F 66.2 °F 78% 29.74 in 6.2 mi SSW 6.9 mph - N/A   Partly Cloudy
12:30 PM 71.6 °F 66.2 °F 83% 29.74 in 6.2 mi South 4.6 mph - N/A   Partly Cloudy
1:00 PM 72 °F 63 °F 66% 29.73 in 12 mi South 9.2 mph - -   Scattered Clouds
1:00 PM 73.4 °F 66.2 °F 78% 29.71 in 6.2 mi South 8.1 mph - N/A   Partly Cloudy
1:30 PM 73.4 °F 66.2 °F 78% 29.71 in 6.2 mi SW 4.6 mph - N/A   Partly Cloudy
2:00 PM 77.0 °F 66.2 °F 69% 29.68 in 6.2 mi SSW 6.9 mph - N/A   Partly Cloudy
2:30 PM 77.0 °F 66.2 °F 69% 29.68 in 6.2 mi SSW 9.2 mph - N/A   Partly Cloudy
3:00 PM 77.0 °F 66.2 °F 69% 29.68 in 6.2 mi SSW 9.2 mph - N/A   Partly Cloudy
3:30 PM 77.0 °F 66.2 °F 69% 29.68 in 6.2 mi SSW 8.1 mph - N/A   Partly Cloudy
4:00 PM 78.8 °F 64.4 °F 61% 29.68 in 6.2 mi SW 9.2 mph - N/A   Scattered Clouds
4:12 PM 75.2 °F 68.0 °F 78% 29.71 in 5.6 mi WNW 18.4 mph - N/A Rain Rain Showers
4:15 PM 73.4 °F 69.8 °F 88% 29.71 in 5.6 mi WNW 18.4 mph - N/A Rain Light Rain
4:30 PM 73.4 °F 69.8 °F 88% 29.71 in 6.2 mi WNW 6.9 mph - N/A   Scattered Clouds
5:00 PM 73.4 °F 69.8 °F 88% 29.68 in 6.2 mi East 3.5 mph - N/A   Scattered Clouds
5:30 PM 75.2 °F 62.6 °F 65% 29.71 in 6.2 mi Variable 4.6 mph - N/A   Mostly Cloudy
6:00 PM 73.4 °F 64.4 °F 73% 29.74 in 6.2 mi West 6.9 mph - N/A Rain Light Rain
6:30 PM 71.6 °F 64.4 °F 78% 29.71 in 6.2 mi WNW 5.8 mph - N/A   Mostly Cloudy
7:00 PM 69 °F 62 °F 71% 29.72 in 12 mi West 4.6 mph - - Rain Light Rain
7:00 PM 69.8 °F 64.4 °F 83% 29.71 in 6.2 mi West 3.5 mph - N/A   Partly Cloudy
7:30 PM 69.8 °F 64.4 °F 83% 29.71 in 6.2 mi SSW 3.5 mph - N/A   Partly Cloudy
8:00 PM 68.0 °F 64.4 °F 88% 29.71 in 6.2 mi South 4.6 mph - N/A   Partly Cloudy
8:30 PM 68.0 °F 64.4 °F 88% 29.71 in 6.2 mi SW 5.8 mph - N/A   Partly Cloudy
9:00 PM 68.0 °F 64.4 °F 88% 29.71 in 6.2 mi West 6.9 mph - N/A   Partly Cloudy
9:30 PM 66.2 °F 62.6 °F 88% 29.71 in 6.2 mi West 5.8 mph - N/A   Partly Cloudy
10:00 PM 66.2 °F 62.6 °F 88% 29.71 in 6.2 mi Variable 2.3 mph - N/A   Partly Cloudy
10:30 PM 66.2 °F 62.6 °F 88% 29.71 in 6.2 mi WNW 4.6 mph - N/A   Partly Cloudy
11:00 PM 66.2 °F 62.6 °F 88% 29.74 in 6.2 mi West 6.9 mph - N/A   Partly Cloudy
11:30 PM 66.2 °F 62.6 °F 88% 29.74 in 6.2 mi Variable 2.3 mph - N/A   Partly Cloudy